Regional Weather Roundup
Issued by NWS

Home | Current Version | Previous Version | Graphics & Text | Print | Product List | Glossary On
Versions: 1 2 3 4 5 6 7 8 9 10 11 12 13 14 15 16 17 18 19 20 21 22 23 24 25 26 27 28 29 30 31 32 33 34 35 36 37 38 39 40 41 42 43 44 45 46 47 48 49 50
000
ASUS43 KFSD 310410
RWRSD

WEATHER ROUNDUP FOR SOUTH DAKOTA
NATIONAL WEATHER SERVICE SIOUX FALLS SD
1100 PM CDT SAT AUG 30 2014

NOTE: "FAIR" INDICATES FEW OR NO CLOUDS BELOW 12,000 FEET WITH NO
SIGNIFICANT WEATHER AND/OR OBSTRUCTIONS TO VISIBILITY.


SDZ001>005-009-010-012>017-310500-
NORTHWEST AND NORTH CENTRAL SOUTH DAKOTA

CITY           SKY/WX    TMP DP  RH WIND       PRES   REMARKS
BUFFALO          N/A     62  59  90 N6        29.69
FAITH            N/A     63  59  87 SW12      29.67R
MOBRIDGE       CLOUDY    66  60  81 SE15      29.66S
$$

SDZ012>016-024>037-041>051-057-063-072>074-310500-
SOUTHWEST AND SOUTH CENTRAL SOUTH DAKOTA

CITY           SKY/WX    TMP DP  RH WIND       PRES   REMARKS
RAPID CTY ARPT MOCLDY    68  52  56 N22G30    29.79R
PIERRE         CLOUDY    68  63  84 SE21      29.64F
CUSTER         MOCLDY    64  48  56 N8G20     29.90R
ELLSWORTH AFB  CLOUDY    69  54  59 N20       29.79
PHILIP         CLOUDY    79  51  37 S24G35    29.64S
PINE RIDGE     CLOUDY    69  56  62 W14G20    29.78R
WINNER         FAIR      74  65  73 S16G24    29.70F
$$

SDZ004>011-016>023-039-040-310500-
NORTHEAST SOUTH DAKOTA

CITY           SKY/WX    TMP DP  RH WIND       PRES   REMARKS
ABERDEEN       CLEAR     60  59  96 SE10      29.77R
WATERTOWN      CLEAR     60  57  89 SE7       29.80F
SISSETON         N/A     58  58 100 S5        29.79F
$$

SDZ017-020-022-023-036>040-048>070-310500-
SOUTHEAST SOUTH DAKOTA

CITY           SKY/WX    TMP DP  RH WIND       PRES   REMARKS
SIOUX FALLS    CLEAR     66  60  81 SE7       29.83F
HURON          CLEAR     64  60  87 SE9       29.76S
CHAMBERLAIN    PTCLDY    66  63  91 SE12      29.73S
MITCHELL       CLEAR     65  61  87 SE12      29.78F
YANKTON        CLEAR     64  63  94 E7        29.81S
$$

ABBREVIATIONS USED IN REMARKS
   TC - TEMPERATURE IN CELSIUS
  WCI - WIND CHILL INDEX
   HX - HEAT INDEX
  VSB - VISIBILITY



USA.gov is the U.S. government's official web portal to all federal, state and local government web resources and services.